Weather History for Garrison, ND

Change the Weather History Date:

Wednesday, November 13, 2013

  Actual Average Record
Temperature  
Mean Temperature 43 °F -  
Max Temperature 56 °F 36 °F 62 °F (2001)
Min Temperature 30 °F 17 °F 0 °F (2000)
Degree Days  
Heating Degree Days 22    
Month to date heating degree days 426  
Moisture  
Dew Point 33 °F    
Average Humidity 66    
Maximum Humidity 85    
Minimum Humidity 47    
Precipitation  
Precipitation 0.00 in - - ()
Month to date precipitation 0.02  
Year to date precipitation 28.89  
Sea Level Pressure  
Sea Level Pressure 29.96 in    
Wind  
Wind Speed 12 mph (West)    
Max Wind Speed 21 mph    
Max Gust Speed 26 mph    
Averages and records for this station are not official NWS values.
T = Trace of Precipitation, MM = Missing Value Source: NWS Daily Summary

Daily Weather History Graph

Daily Weather History Graph

Search for Another Location

Airport:

Trip Planner

Search our weather history database for the weather conditions in past years. The results will help you decide how hot, cold, wet, or windy it might be!

Date:

Astronomy

Nov. 13, 2013 Rise Set
Actual Time 7:48 AM CST 5:11 PM CST
Civil Twilight 7:15 AM CST 5:44 PM CST
Nautical Twilight 6:37 AM CST 6:21 PM CST
Astronomical Twilight 6:01 AM CST 6:58 PM CST
Moon 3:13 PM CST (11/13) 3:27 AM CST (11/13)
Length of Visible Light 10h 29m
Length of Day
9h 22m
Waxing Gibbous, 85% of the Moon is Illuminated
Nov 13
Waxing Gibbous
Nov 17
Full
Nov 25
Last Quarter
Dec 2
New
Dec 9
First Quarter

Hourly Weather History & Observations

Time (CST) Temp. Windchill Dew Point Humidity Pressure Visibility Wind Dir Wind Speed Gust Speed Precip Events Conditions
12:52 AM 32.0 °F 25.6 °F 28.0 °F 85% 30.09 in - South 6.9 mph - N/A   Unknown
1:52 AM 32.0 °F 25.6 °F 28.0 °F 85% 30.04 in - SW 6.9 mph - N/A   Unknown
2:52 AM 32.0 °F 26.4 °F 27.0 °F 82% 30.03 in - SW 5.8 mph - N/A   Unknown
3:52 AM 33.1 °F 26.9 °F 28.9 °F 85% 30.01 in - West 6.9 mph - N/A   Unknown
4:52 AM 35.1 °F 27.9 °F 30.9 °F 85% 29.99 in - West 9.2 mph - N/A   Unknown
5:52 AM 37.9 °F 30.5 °F 33.1 °F 83% 29.98 in - West 11.5 mph - N/A   Unknown
6:52 AM 42.1 °F 35.2 °F 35.1 °F 76% 29.96 in - WSW 12.7 mph - N/A   Unknown
7:52 AM 41.0 °F 34.3 °F 35.1 °F 79% 29.97 in - West 11.5 mph - N/A   Unknown
8:52 AM 44.1 °F 36.8 °F 36.0 °F 73% 29.98 in - West 16.1 mph - N/A   Unknown
9:52 AM 46.9 °F - 36.0 °F 66% 29.98 in - WNW 18.4 mph - N/A   Unknown
10:52 AM 46.0 °F 38.3 °F 35.1 °F 66% 29.98 in - NW 20.7 mph 25.3 mph N/A   Unknown
11:52 AM 48.9 °F - 35.1 °F 59% 29.99 in - West 13.8 mph - N/A   Unknown
12:52 PM 52.0 °F - 35.1 °F 53% 29.97 in - West 12.7 mph - N/A   Unknown
1:52 PM 55.9 °F - 36.0 °F 47% 29.95 in - WNW 13.8 mph - N/A   Unknown
2:52 PM 53.1 °F - 35.1 °F 50% 29.94 in - West 15.0 mph - N/A   Unknown
3:52 PM 52.0 °F - 35.1 °F 53% 29.92 in - West 11.5 mph - N/A   Unknown
4:52 PM 46.9 °F - 33.1 °F 59% 29.93 in - NNW 4.6 mph - N/A   Unknown
5:52 PM 41.0 °F 37.1 °F 30.9 °F 67% 29.93 in - West 5.8 mph - N/A   Unknown
6:52 PM 39.0 °F 34.8 °F 30.9 °F 73% 29.94 in - West 5.8 mph - N/A   Unknown
7:52 PM 41.0 °F 38.0 °F 34.0 °F 76% 29.93 in - West 4.6 mph - N/A   Unknown
8:52 PM 39.0 °F 36.8 °F 34.0 °F 82% 29.91 in - SW 3.5 mph - N/A   Unknown
9:52 PM 37.9 °F - 34.0 °F 86% 29.89 in - Calm Calm - N/A   Unknown
10:52 PM 36.0 °F 33.3 °F 34.0 °F 93% 29.88 in - SSW 3.5 mph - N/A   Unknown
11:52 PM 33.1 °F 27.7 °F 30.9 °F 92% 29.87 in - West 5.8 mph - N/A   Unknown